Theta_e
305 306 306 306 306 306 306 306 307 309 309 309 309 311 309 307 307 308 310 313 319 314 316 329 336 334 344 348 348 351 355 357 354 351 352 350 352 354 349 345 346 344 344 344 344
308 308 309 308 308 307 306 307 307 308 309 309 310 310 311 309 308 309 311 312 318 315 313 323 339 341 345 349 350 352 355 352 349 347 347 349 351 353 349 347 347 345 344 345 345
307 307 308 309 310 310 308 308 307 308 309 308 309 310 309 309 309 319 321 322 315 316 316 330 336 339 341 347 349 350 353 350 348 345 348 351 350 352 350 351 348 346 345 345 346
306 307 307 308 309 311 310 309 307 308 309 308 309 311 311 309 315 318 319 321 318 316 319 328 334 334 337 343 347 350 348 351 351 350 347 348 352 352 351 351 349 347 345 345 346
306 306 306 307 309 310 310 309 308 308 308 308 312 312 310 310 309 313 315 320 318 316 322 327 330 329 329 334 338 347 345 345 347 347 345 345 350 353 352 351 348 346 345 345 345
305 306 306 306 308 310 310 309 309 309 308 309 311 311 311 311 310 315 319 318 317 317 325 327 327 327 327 332 332 334 336 342 341 341 343 343 344 351 352 348 347 346 345 345 345
304 305 305 306 308 309 309 309 309 308 308 309 311 313 313 314 312 314 315 319 317 319 326 327 326 325 325 324 328 330 333 331 330 332 340 342 348 351 350 348 347 346 345 346 345
303 304 305 306 311 309 309 308 308 308 308 309 312 314 315 313 313 311 315 315 320 326 324 322 322 324 321 321 321 323 324 325 329 331 338 343 349 351 349 348 347 346 345 346 345
303 304 305 306 311 309 308 307 307 308 309 312 311 313 311 311 312 311 314 315 323 328 318 319 321 320 319 323 324 324 322 323 326 333 341 344 346 350 348 348 348 346 345 345 346
303 304 305 306 310 307 307 307 308 308 308 312 310 312 310 309 310 312 312 316 322 319 317 317 320 319 320 322 321 323 323 327 325 333 340 345 345 351 348 348 348 347 345 345 345
303 303 305 306 309 307 307 308 309 309 307 308 308 309 309 309 311 309 313 320 320 317 317 318 317 320 319 320 321 323 326 324 330 330 339 343 344 350 348 348 347 347 346 345 345
302 303 304 309 308 307 308 309 309 309 309 308 308 308 308 309 310 309 316 321 322 322 318 317 318 318 318 317 319 320 324 326 328 331 340 342 344 344 350 349 348 346 346 345 345
305 303 304 311 309 309 309 310 310 309 307 308 309 308 308 309 309 308 310 313 321 322 322 322 320 318 317 317 318 320 320 323 327 327 335 340 342 347 351 349 347 347 346 344 345
308 304 304 311 308 309 309 310 309 308 309 309 309 308 308 309 309 308 310 312 315 322 322 323 323 319 319 318 318 319 320 321 323 326 332 338 344 346 350 353 351 348 346 345 344
308 305 306 310 308 309 310 310 308 307 310 309 308 308 308 308 308 308 310 313 315 316 319 324 323 322 320 319 318 319 318 319 321 324 327 330 340 340 346 354 354 351 349 346 345
308 305 306 310 310 310 310 310 308 309 309 309 308 308 308 307 308 308 313 314 315 318 318 319 317 322 324 321 319 319 321 320 320 320 322 329 334 339 345 349 352 351 350 349 348
307 304 307 310 310 311 310 308 310 309 309 308 308 308 307 308 308 309 314 315 317 317 319 319 320 319 320 323 321 319 320 322 324 323 321 323 329 331 336 344 344 349 350 350 350
306 305 309 309 310 311 311 310 310 310 308 307 307 307 308 307 307 308 312 312 313 316 318 319 319 320 317 321 323 323 323 323 325 325 323 322 328 331 331 330 341 344 347 350 350
306 308 310 309 310 310 310 311 310 309 308 307 308 308 308 307 308 307 311 313 314 312 316 319 320 316 317 318 321 324 324 323 324 325 327 324 325 327 330 332 332 335 343 347 349
308 309 308 310 309 309 311 309 308 308 309 307 309 308 308 307 308 307 307 312 313 311 311 313 308 311 316 317 319 322 324 325 325 326 327 327 327 326 329 332 333 334 336 341 346
308 309 307 309 309 309 311 309 309 308 309 308 308 308 308 307 307 307 307 311 312 311 311 311 311 308 311 317 323 322 323 326 327 327 327 327 328 329 329 332 333 334 333 338 341
307 307 308 311 310 306 309 307 306 308 309 309 307 308 307 307 307 307 308 309 310 311 311 312 312 310 309 310 315 316 321 324 328 330 331 329 329 328 330 330 332 332 333 335 338
305 305 307 309 310 308 306 306 306 308 308 309 309 307 306 307 307 308 308 311 310 311 312 313 313 310 310 314 316 316 318 319 320 324 330 332 329 330 330 329 328 330 331 334 339
305 309 307 307 305 308 307 307 308 307 308 309 309 309 308 308 308 308 309 311 311 311 312 312 312 310 307 310 310 313 315 316 317 324 326 329 332 331 330 331 331 329 327 326 336
306 306 305 309 308 307 307 307 307 308 308 307 310 310 309 310 308 308 307 310 309 310 312 311 311 310 309 308 308 310 311 313 316 318 324 327 329 330 332 332 333 332 328 330 329
307 307 306 306 306 307 307 309 307 308 307 308 308 308 308 308 309 308 307 307 309 311 312 310 310 310 309 308 310 310 312 313 315 317 318 321 325 326 327 336 332 335 337 338 339
307 306 306 307 308 308 308 308 308 309 307 307 307 307 308 308 307 307 307 308 308 309 311 309 310 309 307 309 313 315 313 315 316 320 320 324 325 329 331 338 332 331 332 334 338
Wind_Speed
23 24 23 23 22 21 19 17 16 16 17 20 20 20 16 14 12 13 14 9 12 11 24 25 22 19 16 12 8 4 2 3 2 1 5 8 5 4 6 17 7 11 8 21 33
24 25 25 24 24 23 22 20 17 16 18 21 22 19 14 14 14 14 7 7 11 19 30 29 24 23 10 11 6 6 3 3 1 1 2 10 9 11 8 15 7 8 15 33 36
25 25 25 26 25 23 21 21 17 16 17 21 17 18 11 13 10 4 4 2 20 26 24 24 24 18 11 9 9 6 4 5 3 4 3 7 9 8 13 11 13 24 28 36 37
26 26 25 27 27 24 20 20 17 18 19 21 14 13 16 11 1 2 4 5 24 31 27 24 23 15 10 9 15 5 10 6 2 2 3 3 7 8 15 1 14 24 35 41 37
26 26 26 27 26 23 19 17 17 18 20 17 11 15 15 5 4 8 5 1 30 34 29 24 27 17 13 12 10 15 6 7 14 12 7 3 10 5 16 3 16 25 37 40 35
28 27 28 28 27 23 18 17 17 18 18 15 16 13 5 0 1 12 7 10 31 32 25 23 20 14 15 8 13 8 21 9 6 7 8 7 5 8 4 13 21 29 37 39 36
30 29 29 29 28 23 19 19 19 17 14 14 13 11 8 3 2 7 11 5 26 30 26 22 8 17 8 6 10 15 3 6 11 13 6 5 7 11 14 19 26 29 33 35 34
31 31 30 29 27 21 20 19 18 14 9 12 13 9 6 10 6 7 4 1 18 29 19 21 10 14 4 2 3 7 6 8 3 15 7 9 6 6 19 24 26 28 31 35 35
31 31 29 28 26 22 22 20 13 8 9 9 13 6 5 13 15 6 2 2 10 27 13 14 10 7 7 3 6 5 8 17 7 13 6 13 4 9 19 21 25 27 31 34 34
31 31 29 26 21 21 22 15 10 1 11 7 13 4 13 9 19 15 3 5 7 18 13 10 13 8 8 12 13 11 13 7 16 10 14 14 12 10 17 19 25 27 29 32 35
30 30 29 26 13 15 19 8 7 3 8 4 3 3 10 12 5 20 5 9 15 15 11 10 12 21 23 16 13 6 9 11 6 9 14 17 16 12 18 18 21 25 28 32 34
31 32 31 25 8 10 16 10 11 7 6 5 6 6 11 7 5 21 8 4 8 9 10 6 18 20 13 12 14 15 9 11 9 7 8 14 21 11 18 23 27 30 31 32 31
31 30 28 20 5 11 14 17 16 6 3 3 2 8 10 4 5 15 11 1 7 10 17 15 4 15 14 16 15 19 21 12 7 3 11 9 16 13 15 17 20 24 25 27 33
30 27 25 13 1 9 9 16 15 3 1 3 1 5 10 3 2 11 14 2 4 11 12 13 19 9 17 22 19 19 17 16 15 7 11 16 13 15 14 19 20 26 29 31 34
27 25 20 10 3 7 12 16 5 2 3 4 3 5 8 6 7 11 12 2 2 4 4 8 10 18 15 15 18 16 9 18 18 14 11 12 11 16 12 17 21 26 32 33 34
26 23 11 4 4 9 11 12 3 3 4 3 3 3 2 6 4 9 8 6 2 3 3 7 6 8 19 13 18 10 5 11 12 14 17 22 14 16 14 18 18 25 30 34 35
26 21 4 4 10 9 11 2 2 4 2 2 2 2 2 5 4 7 5 7 3 4 3 1 6 6 7 11 17 17 14 7 6 9 18 18 17 16 9 14 18 20 32 35 36
26 17 5 10 9 9 8 1 6 1 2 3 2 1 1 3 2 5 2 2 6 2 1 3 8 3 4 10 9 22 20 8 13 9 13 17 13 16 23 25 13 19 22 29 33
25 4 5 16 15 14 0 3 1 1 2 2 1 3 3 1 3 3 1 1 2 5 2 2 4 2 1 4 4 14 22 23 11 2 9 13 17 14 13 16 26 20 18 25 34
22 5 16 18 12 6 3 1 0 3 5 2 4 4 6 5 3 2 3 4 4 1 4 1 5 2 3 5 13 10 12 18 12 17 14 7 18 14 22 19 15 21 25 25 30
13 3 18 13 5 6 2 3 3 4 8 3 4 5 5 4 5 4 2 5 5 4 2 1 3 2 5 5 8 8 11 10 14 17 11 15 10 10 17 21 21 17 27 30 32
8 2 21 14 7 4 3 7 8 6 4 5 4 9 8 6 6 7 8 6 11 9 3 2 2 5 8 12 7 9 6 13 13 20 18 15 8 3 12 19 23 27 25 29 34
6 5 15 14 4 4 5 5 4 4 6 5 5 2 1 4 5 9 5 3 11 7 5 6 3 4 5 5 5 4 3 6 11 13 18 16 17 19 14 9 10 13 18 19 26
5 2 7 13 6 5 6 5 9 10 6 7 8 8 7 12 10 4 6 5 5 4 8 6 4 8 8 10 10 10 10 12 7 12 17 17 16 20 21 14 10 10 11 12 16
6 3 4 4 6 6 0 2 8 5 3 7 4 4 4 7 10 10 8 3 4 6 7 4 7 8 13 15 14 18 22 20 16 15 11 18 18 14 19 19 24 19 9 6 7
4 4 3 4 6 6 2 1 5 5 3 5 6 8 7 4 4 4 7 10 10 6 7 4 4 7 15 14 16 22 23 22 21 21 16 18 17 11 14 10 6 9 10 12 10
5 2 1 3 3 3 3 3 8 15 4 8 11 5 6 7 9 12 12 16 11 5 10 7 4 4 11 10 18 14 25 24 19 12 18 19 14 8 10 4 7 9 10 14 15
Wind_Direction
13 9 4 360 356 354 353 349 344 344 345 346 340 324 312 302 293 276 269 269 225 195 180 169 166 169 165 175 185 188 245 251 210 157 138 167 151 133 135 141 150 175 160 161 158
13 9 3 357 351 348 344 342 340 339 340 339 344 330 300 306 300 289 243 223 184 198 186 177 164 159 169 187 201 208 235 226 284 290 129 181 186 143 143 149 130 142 135 151 159
10 6 360 356 352 344 339 335 335 335 338 338 343 353 335 315 317 141 137 263 195 188 187 179 162 158 165 179 196 197 232 237 32 89 99 145 183 168 155 188 187 165 157 160 164
6 3 357 354 353 348 338 330 331 330 334 337 334 327 338 317 281 277 268 303 188 181 184 171 168 169 172 187 203 232 243 241 273 134 33 189 168 187 188 251 191 174 166 162 170
3 359 355 353 354 351 344 330 330 329 333 335 336 328 322 299 265 335 322 357 176 179 181 174 176 179 186 200 189 224 248 264 254 279 298 221 196 198 202 114 156 162 165 169 172
359 359 355 353 354 355 349 341 334 330 334 336 333 340 347 241 358 21 30 164 180 180 177 176 187 180 193 197 211 224 226 243 291 274 269 267 254 198 164 148 151 164 171 174 177
355 358 356 354 352 353 348 343 334 332 329 342 348 349 76 38 55 12 6 171 189 183 177 173 187 181 166 189 220 227 289 234 247 253 232 205 219 221 161 157 160 169 175 179 182
355 355 355 354 352 349 346 345 336 345 346 349 14 68 83 36 15 359 358 127 198 189 184 187 175 193 205 255 164 209 223 247 189 212 212 190 253 176 164 164 167 172 179 183 189
353 352 353 354 352 348 351 346 351 27 359 45 32 70 27 21 24 21 88 164 182 195 169 199 186 205 206 201 198 179 209 218 244 200 187 193 249 168 174 176 172 178 183 188 191
350 348 352 355 350 350 353 347 347 8 26 27 27 80 26 349 19 30 61 157 158 164 181 164 189 208 207 205 207 196 216 211 217 193 214 208 230 159 179 182 181 182 186 192 195
347 344 351 353 349 354 3 13 8 16 36 34 351 76 342 3 21 25 126 135 117 151 180 181 195 209 208 212 228 256 235 241 219 216 202 230 225 202 182 191 188 189 191 196 199
348 344 350 353 11 15 19 56 32 325 317 29 61 38 5 14 359 16 113 177 158 177 168 179 221 223 225 213 216 230 246 233 248 234 218 218 243 211 191 201 196 194 195 199 197
349 343 347 354 42 21 23 12 350 321 245 299 111 21 7 31 44 6 17 280 203 184 196 211 246 200 201 205 213 224 234 229 244 332 226 246 241 214 208 213 206 207 206 201 199
347 341 346 357 29 7 1 351 333 230 295 138 101 26 353 126 104 359 1 294 191 221 191 227 234 208 208 213 210 230 226 243 251 274 226 213 240 213 194 205 207 204 202 203 203
344 343 351 353 25 357 335 341 337 154 278 58 65 37 21 62 338 8 350 12 229 168 221 198 204 208 219 218 206 233 224 226 237 249 271 243 237 234 196 207 209 209 208 206 205
342 341 341 354 17 345 340 342 125 218 226 122 62 21 30 28 22 331 359 28 345 273 189 249 298 225 224 213 205 210 161 215 234 239 246 233 231 228 204 214 209 214 213 210 207
343 340 289 17 342 341 339 354 215 222 79 113 59 20 57 17 24 14 26 38 11 226 218 309 221 223 210 200 201 205 209 208 211 211 238 223 237 234 222 220 216 207 213 211 210
347 345 147 350 326 335 348 228 227 84 58 38 35 77 263 5 40 10 37 19 50 358 58 236 206 200 22 227 215 208 208 204 210 218 234 217 235 221 228 240 237 234 220 211 209
349 34 39 344 322 303 190 232 329 141 341 315 267 224 187 297 315 320 106 207 351 1 312 260 246 343 238 322 232 203 213 218 259 242 254 216 235 264 228 235 229 225 216 206 209
351 125 12 356 355 124 153 107 24 31 353 279 247 219 209 193 241 253 228 166 164 309 331 115 286 33 317 297 233 239 209 209 223 241 234 209 226 232 209 224 222 225 218 215 213
1 101 3 354 21 56 65 22 325 334 341 275 264 260 241 229 225 209 223 157 178 146 79 169 275 273 302 199 235 195 219 216 232 231 235 239 230 238 229 213 217 218 220 221 218
16 72 2 11 46 34 38 340 334 327 360 291 277 264 245 213 222 225 240 238 172 163 186 127 262 273 269 272 285 301 280 263 227 224 232 257 247 199 228 220 217 224 225 223 221
16 355 22 30 66 36 352 343 304 317 332 318 305 344 354 233 241 236 241 177 165 168 168 167 197 282 256 197 140 223 231 260 274 270 244 225 229 264 273 248 232 234 240 238 232
15 12 24 53 69 37 17 2 350 327 317 345 290 288 256 242 228 275 243 183 172 181 136 159 195 260 272 319 324 285 294 301 299 245 229 241 250 240 248 265 258 261 269 267 233
33 59 27 9 38 3 219 294 332 323 317 329 280 288 313 243 220 217 237 175 183 199 172 194 234 225 267 284 293 278 273 268 262 261 251 231 240 259 244 252 262 285 254 252 225
50 19 10 342 346 329 27 104 293 308 241 299 250 316 288 235 227 216 194 221 220 179 181 175 232 231 274 284 289 271 260 255 251 255 251 265 261 267 283 291 284 311 308 289 276
47 63 28 316 338 321 1 299 297 328 274 278 298 310 271 262 256 246 256 266 262 222 197 194 228 267 269 321 325 266 245 240 240 239 223 222 225 302 288 356 13 344 324 304 293